Hourly Weather Ruem

Today, 16 June, Wednesday

Time Temperature Precipitation Wind Pressure Humidity
00:00 +19°C° 0 mm 1 mps 748 mmHg 91%
01:00 +18°C° 0.1 mm 1 mps 748 mmHg 91%
02:00 +18°C° 0.1 mm 1 mps 747 mmHg 91%
03:00 +18°C° 0 mm 1 mps 747 mmHg 92%
04:00 +19°C° 0.3 mm 1 mps 747 mmHg 91%
05:00 +19°C° 0.3 mm 2 mps 746 mmHg 90%
06:00 +20°C° 0.3 mm 2 mps 746 mmHg 89%
07:00 +23°C° 0 mm 2 mps 746 mmHg 77%
08:00 +25°C° 0 mm 2 mps 745 mmHg 66%
09:00 +27°C° 0 mm 2 mps 745 mmHg 55%
10:00 +29°C° 0 mm 2 mps 745 mmHg 49%
11:00 +30°C° 0 mm 3 mps 744 mmHg 43%
12:00 +31°C° 0 mm 3 mps 744 mmHg 37%
13:00 +31°C° 0 mm 3 mps 744 mmHg 37%
14:00 +31°C° 0 mm 2 mps 744 mmHg 37%
15:00 +32°C° 0 mm 2 mps 743 mmHg 38%
16:00 +30°C° 0.1 mm 3 mps 743 mmHg 48%
17:00 +28°C° 0.1 mm 4 mps 743 mmHg 59%
18:00 +26°C° 0.1 mm 5 mps 743 mmHg 69%
19:00 +23°C° 1.2 mm 5 mps 744 mmHg 77%
20:00 +20°C° 1.2 mm 5 mps 745 mmHg 85%
21:00 +17°C° 1.2 mm 5 mps 746 mmHg 93%
22:00 +16°C° 0 mm 5 mps 746 mmHg 93%
23:00 +15°C° 0 mm 4 mps 747 mmHg 94%

Tomorrow, 17 June, Thursday

Time Temperature Precipitation Wind Pressure Humidity
00:00 +14°C° 0 mm 3 mps 748 mmHg 94%
01:00 +14°C° 0 mm 3 mps 748 mmHg 95%
02:00 +14°C° 0 mm 2 mps 749 mmHg 96%
03:00 +13°C° 0 mm 2 mps 749 mmHg 96%
04:00 +14°C° 0 mm 2 mps 750 mmHg 92%
05:00 +15°C° 0 mm 2 mps 750 mmHg 89%
06:00 +16°C° 0 mm 2 mps 750 mmHg 85%
07:00 +17°C° 0 mm 3 mps 751 mmHg 74%
08:00 +19°C° 0 mm 3 mps 751 mmHg 64%
09:00 +20°C° 0 mm 4 mps 751 mmHg 53%
10:00 +21°C° 0 mm 4 mps 751 mmHg 50%
11:00 +21°C° 0 mm 5 mps 752 mmHg 46%
12:00 +22°C° 0 mm 5 mps 752 mmHg 42%
13:00 +22°C° 0 mm 5 mps 752 mmHg 41%
14:00 +22°C° 0 mm 5 mps 752 mmHg 40%
15:00 +22°C° 0 mm 5 mps 753 mmHg 40%
16:00 +21°C° 0 mm 4 mps 753 mmHg 45%
17:00 +20°C° 0 mm 4 mps 753 mmHg 51%
18:00 +19°C° 0 mm 3 mps 753 mmHg 57%
19:00 +18°C° 0 mm 3 mps 754 mmHg 60%
20:00 +17°C° 0 mm 2 mps 755 mmHg 63%
21:00 +15°C° 0 mm 2 mps 755 mmHg 67%
22:00 +14°C° 0 mm 2 mps 756 mmHg 69%
23:00 +13°C° 0 mm 2 mps 756 mmHg 72%

Day after tomorrow, 18 June, Friday

Time Temperature Precipitation Wind Pressure Humidity
00:00 +10°C° 0 mm 2 mps 756 mmHg 74%
01:00 +10°C° 0 mm 2 mps 757 mmHg 73%
02:00 +9°C° 0 mm 2 mps 757 mmHg 72%
03:00 +8°C° 0 mm 2 mps 757 mmHg 70%
04:00 +10°C° 0 mm 2 mps 758 mmHg 68%
05:00 +12°C° 0 mm 2 mps 758 mmHg 65%
06:00 +13°C° 0 mm 2 mps 759 mmHg 62%
07:00 +15°C° 0 mm 2 mps 759 mmHg 57%
08:00 +17°C° 0 mm 2 mps 759 mmHg 51%
09:00 +19°C° 0 mm 2 mps 759 mmHg 45%
10:00 +20°C° 0 mm 3 mps 759 mmHg 43%
11:00 +20°C° 0 mm 3 mps 759 mmHg 40%
12:00 +21°C° 0 mm 3 mps 759 mmHg 37%
13:00 +22°C° 0 mm 3 mps 759 mmHg 37%
14:00 +22°C° 0 mm 3 mps 759 mmHg 38%
15:00 +22°C° 0 mm 3 mps 758 mmHg 38%
16:00 +23°C° 0 mm 2 mps 758 mmHg 45%
17:00 +21°C° 0 mm 2 mps 758 mmHg 52%
18:00 +22°C° 0 mm 1 mps 758 mmHg 60%
19:00 +20°C° 0 mm 1 mps 758 mmHg 61%
20:00 +18°C° 0 mm 1 mps 758 mmHg 63%
21:00 +16°C° 0 mm 1 mps 758 mmHg 65%
22:00 +15°C° 0 mm 2 mps 758 mmHg 68%
23:00 +15°C° 0 mm 2 mps 758 mmHg 70%

19 June, Saturday

Time Temperature Precipitation Wind Pressure Humidity
00:00 +15°C° 0 mm 2 mps 758 mmHg 73%
01:00 +14°C° 0 mm 2 mps 758 mmHg 74%
02:00 +14°C° 0 mm 2 mps 758 mmHg 74%
03:00 +14°C° 0 mm 2 mps 758 mmHg 75%
04:00 +15°C° 0 mm 2 mps 758 mmHg 74%
05:00 +17°C° 0 mm 3 mps 758 mmHg 74%
06:00 +18°C° 0 mm 3 mps 758 mmHg 73%
07:00 +20°C° 0 mm 3 mps 758 mmHg 68%
08:00 +22°C° 0 mm 4 mps 758 mmHg 63%
09:00 +25°C° 0 mm 4 mps 757 mmHg 58%
10:00 +27°C° 0 mm 4 mps 757 mmHg 53%
11:00 +28°C° 0 mm 5 mps 757 mmHg 49%
12:00 +29°C° 0 mm 5 mps 756 mmHg 45%
13:00 +30°C° 0 mm 5 mps 756 mmHg 44%
14:00 +30°C° 0 mm 5 mps 756 mmHg 43%
15:00 +30°C° 0 mm 5 mps 756 mmHg 42%
16:00 +29°C° 0 mm 5 mps 755 mmHg 47%
17:00 +29°C° 0 mm 4 mps 755 mmHg 51%
18:00 +28°C° 0 mm 4 mps 755 mmHg 56%
19:00 +26°C° 0 mm 4 mps 755 mmHg 62%
20:00 +24°C° 0 mm 3 mps 755 mmHg 69%
21:00 +22°C° 0 mm 3 mps 755 mmHg 75%
22:00 +21°C° 0 mm 3 mps 756 mmHg 78%
23:00 +20°C° 0 mm 3 mps 756 mmHg 82%

20 June, Sunday

Time Temperature Precipitation Wind Pressure Humidity
00:00 +19°C° 0 mm 3 mps 756 mmHg 85%
01:00 +19°C° 0 mm 2 mps 756 mmHg 88%
02:00 +18°C° 0 mm 2 mps 756 mmHg 91%
03:00 +17°C° 0 mm 2 mps 756 mmHg 93%
04:00 +19°C° 0 mm 2 mps 756 mmHg 87%
05:00 +20°C° 0 mm 2 mps 756 mmHg 82%
06:00 +21°C° 0 mm 2 mps 757 mmHg 76%
07:00 +24°C° 0 mm 3 mps 757 mmHg 69%
08:00 +26°C° 0 mm 3 mps 757 mmHg 62%
09:00 +28°C° 0 mm 3 mps 756 mmHg 56%
10:00 +29°C° 0 mm 3 mps 756 mmHg 51%
11:00 +30°C° 0 mm 3 mps 756 mmHg 47%
12:00 +31°C° 0 mm 3 mps 756 mmHg 42%
13:00 +31°C° 0 mm 3 mps 756 mmHg 41%
14:00 +31°C° 0 mm 3 mps 756 mmHg 41%
15:00 +31°C° 0 mm 3 mps 756 mmHg 40%
16:00 +31°C° 0 mm 2 mps 756 mmHg 46%
17:00 +30°C° 0 mm 2 mps 755 mmHg 52%
18:00 +30°C° 0 mm 1 mps 755 mmHg 58%
19:00 +28°C° 0 mm 1 mps 755 mmHg 61%
20:00 +26°C° 0 mm 1 mps 755 mmHg 64%
21:00 +24°C° 0 mm 1 mps 756 mmHg 67%
22:00 +24°C° 0 mm 1 mps 755 mmHg 69%
23:00 +24°C° 0 mm 1 mps 755 mmHg 72%

21 June, Monday

Time Temperature Precipitation Wind Pressure Humidity
00:00 +23°C° 0 mm 1 mps 755 mmHg 74%
01:00 +23°C° 0 mm 2 mps 755 mmHg 74%
02:00 +23°C° 0 mm 2 mps 755 mmHg 74%
03:00 +23°C° 0 mm 2 mps 755 mmHg 75%
04:00 +23°C° 0 mm 2 mps 756 mmHg 75%
05:00 +23°C° 0 mm 2 mps 756 mmHg 75%
06:00 +24°C° 0 mm 2 mps 756 mmHg 76%
07:00 +25°C° 0 mm 2 mps 756 mmHg 69%
08:00 +27°C° 0 mm 2 mps 755 mmHg 62%
09:00 +29°C° 0 mm 2 mps 755 mmHg 56%
10:00 +30°C° 0 mm 3 mps 755 mmHg 51%
11:00 +31°C° 0 mm 3 mps 755 mmHg 46%
12:00 +33°C° 0 mm 3 mps 755 mmHg 41%
13:00 +33°C° 0 mm 3 mps 754 mmHg 41%
14:00 +33°C° 0 mm 3 mps 754 mmHg 41%
15:00 +33°C° 0 mm 3 mps 754 mmHg 40%
16:00 +31°C° 0 mm 3 mps 754 mmHg 47%
17:00 +30°C° 0 mm 3 mps 754 mmHg 53%
18:00 +29°C° 0 mm 2 mps 754 mmHg 60%
19:00 +27°C° 0 mm 2 mps 754 mmHg 66%
20:00 +25°C° 0 mm 2 mps 754 mmHg 72%
21:00 +23°C° 0 mm 2 mps 754 mmHg 78%
22:00 +21°C° 0 mm 2 mps 754 mmHg 79%
23:00 +21°C° 0 mm 2 mps 754 mmHg 81%
Show more